Flag for U.S.A. Weather past 2 weeks in Arlington, Texas, U.S.A.

Now
49 °F

Overcast.


Feels Like: 47 °F
Forecast: 45 / 56 °F
Wind: 5 mph from Southeast

Location: Arlington Municipal Airport

Current Time: Dec 20, 2014 at 11:48:18 PM

Latest Report: Dec 20, 2014 at 10:53 PM


Visibility: 10 mi

Pressure: 30.18 "Hg

Humidity: 80%

Dew point: 43 °F

Location of ArlingtonLocation

Historic Weather in Arlington — Graph

°F

Arlington temperature yesterday

Maximum temperature yesterday: 50 °F (at 1:53 PM)
Minimum temperature yesterday: 47 °F (at 4:53 AM)
Average temperature yesterday: 48 °F

Past Weeks' High & Low Weather Summary

 TemperatureHumidityPressure
High72 °F (Dec 12, 2:53 PM)100% (Dec 18, 8:01 AM)30.42 "Hg (Dec 18, 8:01 AM)
Low37 °F (Dec 9, 1:53 AM)28% (Dec 15, 2:53 PM)29.77 "Hg (Dec 14, 4:53 PM)
Average53 °F73%30.19 "Hg
* Reported Dec 5 10:53 PM — Dec 20 10:53 PM, Arlington, Weather by CustomWeather, © 2014

Note: Actual official high and low records may vary slightly from our data, if they occured in-between our weather recording intervals... More about our weather records

Advertising

Arlington weather history for previous 24 hours

 ConditionsComfort  
Time TempWeatherWind HumidityBarometerVisibility
10:53 PM
Dec 20
49 °FOvercast.5 mph80%30.18 "Hg10 mi
9:53 PM49 °FOvercast.No wind77%30.18 "Hg10 mi
8:53 PM49 °FMostly cloudy.5 mph77%30.19 "Hg10 mi
7:53 PM49 °FOvercast.3 mph77%30.18 "Hg10 mi
6:53 PM48 °FOvercast.6 mph80%30.17 "Hg9 mi
5:53 PM49 °FOvercast.6 mph77%30.17 "Hg10 mi
4:53 PM49 °FOvercast.3 mph74%30.18 "Hg10 mi
3:53 PM49 °FOvercast.3 mph77%30.18 "Hg10 mi
2:53 PM49 °FOvercast.No wind74%30.19 "Hg10 mi
1:53 PM49 °FOvercast.No wind74%30.20 "Hg10 mi
12:53 PM48 °FOvercast.5 mph77%30.22 "Hg10 mi
11:53 AM48 °FLow clouds.6 mph80%30.24 "Hg10 mi
10:53 AM47 °FLow clouds.7 mph83%30.26 "Hg7 mi
9:53 AM47 °FLow clouds.8 mph83%30.25 "Hg5 mi
8:53 AM47 °FLow clouds.6 mph83%30.24 "Hg4 mi
7:53 AM47 °FMostly cloudy.3 mph83%30.23 "Hg10 mi
6:53 AM47 °FMostly cloudy.3 mph80%30.23 "Hg10 mi
5:53 AM47 °FOvercast.6 mph80%30.21 "Hg10 mi
4:53 AM47 °FMostly cloudy.5 mph80%30.21 "Hg10 mi
3:53 AM47 °FMostly cloudy.7 mph80%30.21 "Hg10 mi
2:53 AM47 °FLow clouds.8 mph83%30.20 "Hg10 mi
1:53 AM48 °FOvercast.7 mph80%30.19 "Hg10 mi
12:53 AM48 °FOvercast.6 mph80%30.19 "Hg10 mi
11:53 PM
Dec 19
49 °FOvercast.6 mph80%30.21 "Hg10 mi
Weather by CustomWeather, © 2014

See weather overviewHow to use our weather pages